Date String (YYYY-MM-DD hh:mm:ss) UTC,Instrument flags,Ambient pressure (hPa),Sample flow (lpm),Bypass flow (lpm),Sample temperature (°C),Ambient temperature (°C),ASC tube jacket temperature (°C),LED temperature (°C),Box temperature (°C),Sample RH (%),Span deviation,Mass concentration (μg/m³),Mass concentration (μg/m³),Mass concentration (μg/m³)
DateTimeUTC,F1_M11,P_M11,Q1_M11,Q2_M11,T1_M11,T2_M11,T3_M11,T4_M11,T5_M11,U1_M11,ZSPAN_M11,X2_M11,X0_M11,X1_M11
2021-12-16 06:00:00,,0820.2,4.99,0.00,21.7,22.2,00.0,30.7,23.5,07.0,0000.0,0000.40,0002.09,0000.25
2021-12-16 06:01:00,,0820.3,5.02,0.00,21.9,22.9,00.0,30.8,23.8,06.9,0000.0,0000.37,0002.01,0000.25
2021-12-16 06:02:00,,0820.2,4.99,0.00,21.9,22.7,00.0,30.8,23.8,06.9,0000.0,0000.37,0001.99,0000.25
2021-12-16 06:03:00,,0820.3,5.00,0.00,21.9,22.4,00.0,30.8,23.8,06.9,0000.0,0000.38,0002.02,0000.25
2021-12-16 06:04:00,,0820.2,5.00,0.00,21.9,22.1,00.0,30.8,23.6,06.9,0000.0,0000.38,0002.00,0000.25
2021-12-16 06:05:00,,0820.2,5.01,0.00,21.9,21.8,00.0,30.8,23.6,06.9,0000.0,0000.40,0002.15,0000.25
2021-12-16 06:06:00,,0820.2,5.00,0.00,21.8,21.6,00.0,30.8,23.4,06.9,0000.0,0000.43,0002.25,0000.25
2021-12-16 06:07:00,,0820.2,5.00,0.00,21.8,21.4,00.0,30.8,23.3,07.0,0000.0,0000.44,0002.13,0000.26
2021-12-16 06:08:00,,0820.2,5.01,0.00,21.7,21.2,00.0,30.8,23.3,07.0,0000.0,0000.44,0001.10,0000.26
2021-12-16 06:09:00,,0820.2,4.99,0.00,21.7,21.1,00.0,30.8,23.2,07.0,0000.0,0000.48,0001.17,0000.26
2021-12-16 06:10:00,,0820.2,5.01,0.00,21.7,21.0,00.0,30.8,23.2,07.1,0000.0,0000.47,0001.09,0000.26
2021-12-16 06:11:00,,0820.2,4.99,0.00,21.6,20.9,00.0,30.8,23.1,07.1,0000.0,0000.48,0001.09,0000.26
2021-12-16 06:12:00,,0820.2,4.99,0.00,21.5,20.8,00.0,30.7,23.0,07.1,0000.0,0000.50,0001.80,0000.26
2021-12-16 06:13:00,,0820.2,5.00,0.00,21.5,20.7,00.0,30.7,22.9,07.1,0000.0,0000.50,0001.85,0000.27
2021-12-16 06:14:00,,0820.2,5.00,0.00,21.5,20.8,00.0,30.7,23.0,07.2,0000.0,0000.51,0001.88,0000.26
2021-12-16 06:15:00,,0820.2,5.00,0.00,21.6,21.6,00.0,30.7,23.3,07.2,0000.0,0000.53,0001.94,0000.26
2021-12-16 06:16:00,,0820.2,5.00,0.00,21.7,22.5,00.0,30.7,23.6,07.1,0000.0,0000.52,0001.85,0000.26
2021-12-16 06:17:00,,0820.2,5.00,0.00,21.9,23.1,00.0,30.8,23.9,07.0,0000.0,0000.54,0001.84,0000.27
2021-12-16 06:18:00,,0820.2,5.01,0.00,22.0,22.9,00.0,30.8,23.9,07.0,0000.0,0000.54,0001.81,0000.27
2021-12-16 06:19:00,,0820.1,5.01,0.00,22.0,22.5,00.0,30.8,23.8,07.0,0000.0,0000.53,0001.80,0000.26
2021-12-16 06:20:00,,0820.0,4.99,0.00,21.9,22.2,00.0,30.8,23.6,07.0,0000.0,0000.49,0001.68,0000.26
2021-12-16 06:21:00,,0819.9,5.01,0.00,21.9,21.9,00.0,30.8,23.5,07.1,0000.0,0000.50,0001.88,0000.26
2021-12-16 06:22:00,,0820.0,5.00,0.00,21.8,21.6,00.0,30.8,23.3,07.1,0000.0,0000.50,0002.00,0000.26
2021-12-16 06:23:00,,0819.9,4.99,0.00,21.8,21.4,00.0,30.8,23.3,07.1,0000.0,0000.47,0001.39,0000.25
2021-12-16 06:24:00,,0819.9,5.01,0.00,21.7,21.2,00.0,30.8,23.2,07.1,0000.0,0000.48,0001.33,0000.25
2021-12-16 06:25:00,,0820.0,4.99,0.00,21.7,21.0,00.0,30.8,23.0,07.1,0000.0,0000.48,0001.33,0000.26
2021-12-16 06:26:00,,0820.0,5.00,0.00,21.6,20.9,00.0,30.8,23.0,07.1,0000.0,0000.48,0001.32,0000.27
2021-12-16 06:27:00,,0820.0,5.01,0.00,21.5,20.8,00.0,30.7,22.9,07.2,0000.0,0000.49,0001.36,0000.27
2021-12-16 06:28:00,,0820.0,5.00,0.00,21.5,20.7,00.0,30.7,22.9,07.3,0000.0,0000.46,0001.30,0000.26
2021-12-16 06:29:00,,0820.1,4.99,0.00,21.5,20.9,00.0,30.7,23.0,07.2,0000.0,0000.45,0001.27,0000.26
2021-12-16 06:30:00,,0820.2,5.01,0.00,21.6,21.8,00.0,30.7,23.3,07.2,0000.0,0000.46,0001.29,0000.26
2021-12-16 06:31:00,,0820.2,4.99,0.00,21.8,22.7,00.0,30.8,23.7,07.1,0000.0,0000.46,0001.27,0000.26
2021-12-16 06:32:00,,0820.1,5.01,0.00,22.0,23.2,00.0,30.8,24.0,07.1,0000.0,0000.46,0001.08,0000.26
2021-12-16 06:33:00,,0820.2,5.00,0.00,22.0,22.9,00.0,30.9,23.9,07.1,0000.0,0000.45,0001.26,0000.26
2021-12-16 06:34:00,,0820.2,4.99,0.00,22.0,22.5,00.0,30.9,23.7,07.1,0000.0,0000.45,0003.18,0000.26
2021-12-16 06:35:00,,0820.1,4.99,0.00,21.9,22.1,00.0,30.9,23.6,07.1,0000.0,0000.44,0003.30,0000.26
2021-12-16 06:36:00,,0820.1,5.02,0.00,21.9,21.8,00.0,30.9,23.4,07.1,0000.0,0000.44,0003.28,0000.26
2021-12-16 06:37:00,,0820.2,4.99,0.00,21.8,21.6,00.0,30.9,23.4,07.1,0000.0,0000.44,0003.52,0000.26
2021-12-16 06:38:00,,0820.2,5.00,0.00,21.8,21.4,00.0,30.8,23.3,07.1,0000.0,0000.41,0004.35,0000.26
2021-12-16 06:39:00,,0820.0,5.01,0.00,21.7,21.2,00.0,30.8,23.1,07.2,0000.0,0000.43,0004.74,0000.26
2021-12-16 06:40:00,,0820.0,4.99,0.00,21.7,21.0,00.0,30.8,23.1,07.3,0000.0,0000.45,0005.30,0000.27
2021-12-16 06:41:00,,0819.9,5.00,0.00,21.6,20.9,00.0,30.8,23.1,07.3,0000.0,0000.45,0005.31,0000.27
2021-12-16 06:42:00,,0820.0,5.01,0.00,21.6,20.8,00.0,30.8,23.1,07.2,0000.0,0000.46,0005.34,0000.27
2021-12-16 06:43:00,,0820.0,5.00,0.00,21.5,20.8,00.0,30.7,23.0,07.2,0000.0,0000.49,0005.42,0000.28
2021-12-16 06:44:00,,0820.0,5.00,0.00,21.5,20.8,00.0,30.7,23.0,07.2,0000.0,0000.51,0005.44,0000.28
2021-12-16 06:45:00,,0820.0,4.99,0.00,21.6,21.4,00.0,30.7,23.2,07.2,0000.0,0000.54,0003.61,0000.29
2021-12-16 06:46:00,,0819.9,5.01,0.00,21.7,22.3,00.0,30.8,23.6,07.2,0000.0,0000.54,0003.28,0000.29
2021-12-16 06:47:00,,0820.0,4.99,0.00,21.9,23.1,00.0,30.8,23.9,07.0,0000.0,0000.55,0003.32,0000.28
2021-12-16 06:48:00,,0820.0,5.01,0.00,22.0,23.1,00.0,30.9,24.0,07.0,0000.0,0000.57,0003.15,0000.28
2021-12-16 06:49:00,,0820.0,5.00,0.00,22.0,22.7,00.0,30.9,23.8,07.0,0000.0,0000.58,0002.27,0000.28
2021-12-16 06:50:00,,0820.0,4.99,0.00,22.0,22.3,00.0,30.9,23.7,07.0,0000.0,0000.53,0001.83,0000.27
2021-12-16 06:51:00,,0819.8,5.00,0.00,21.9,22.0,00.0,30.9,23.6,07.0,0000.0,0000.50,0001.22,0000.26
2021-12-16 06:52:00,,0820.0,5.00,0.00,21.9,21.7,00.0,30.9,23.4,06.9,0000.0,0000.48,0001.17,0000.25
2021-12-16 06:53:00,,0819.9,5.00,0.00,21.9,21.5,00.0,30.9,23.4,06.9,0000.0,0000.48,0001.16,0000.25
2021-12-16 06:54:00,,0820.1,4.99,0.00,21.8,21.3,00.0,30.9,23.4,07.0,0000.0,0000.43,0001.06,0000.24
2021-12-16 06:55:00,,0820.0,5.00,0.00,21.7,21.2,00.0,30.9,23.3,07.0,0000.0,0000.42,0000.97,0000.23
2021-12-16 06:56:00,,0820.0,5.00,0.00,21.7,21.0,00.0,30.8,23.2,07.0,0000.0,0000.42,0002.40,0000.22
2021-12-16 06:57:00,,0820.0,4.99,0.00,21.7,21.0,00.0,30.8,23.2,07.0,0000.0,0000.42,0002.93,0000.22
2021-12-16 06:58:00,,0819.9,5.01,0.00,21.6,20.9,00.0,30.8,23.2,07.0,0000.0,0000.41,0002.91,0000.22
2021-12-16 06:59:00,,0819.9,4.99,0.00,21.6,20.8,00.0,30.8,23.1,07.1,0000.0,0000.38,0002.83,0000.22
